CRV1 KTEB-KPVD

Flight info

Callsign CRV1
Flight time N/A
Altitude 17000
Route BREZY V39 CMK BAYYS SEALL GON MINNK JORDN2
Aircraft A319/M-SDE3FGHIRWY/LB1

Departure

Time 2026-05-07 18:41
Airport Teterboro Airport (KTEB)

Arrival

Time N/A
Airport Rhode Island T. F. Green International Airport (KPVD)
Time Latitude Longitude Altitude Speed Heading
2026-05-07 18:24 40.84631 -74.06680 18 ft 0 kts 229°
2026-05-07 18:35 40.84626 -74.06687 18 ft 3 kts 228°
2026-05-07 18:35 40.84624 -74.06733 18 ft 6 kts 302°
2026-05-07 18:35 40.84662 -74.06775 18 ft 7 kts 320°
2026-05-07 18:35 40.84705 -74.06767 18 ft 7 kts 42°
2026-05-07 18:36 40.84743 -74.06710 19 ft 9 kts 49°
2026-05-07 18:36 40.84787 -74.06644 19 ft 10 kts 48°
2026-05-07 18:36 40.84830 -74.06581 21 ft 9 kts 48°
2026-05-07 18:36 40.84873 -74.06519 21 ft 10 kts 48°
2026-05-07 18:37 40.84855 -74.06440 20 ft 11 kts 130°
2026-05-07 18:37 40.84798 -74.06347 18 ft 15 kts 128°
2026-05-07 18:37 40.84728 -74.06228 17 ft 17 kts 127°
2026-05-07 18:37 40.84669 -74.06129 15 ft 11 kts 148°
2026-05-07 18:38 40.84587 -74.06130 16 ft 13 kts 184°
2026-05-07 18:38 40.84494 -74.06137 14 ft 14 kts 184°
2026-05-07 18:38 40.84388 -74.06145 14 ft 16 kts 183°
2026-05-07 18:38 40.84273 -74.06152 16 ft 17 kts 184°
2026-05-07 18:39 40.84150 -74.06162 14 ft 18 kts 183°
2026-05-07 18:39 40.84016 -74.06171 14 ft 20 kts 182°
2026-05-07 18:39 40.83892 -74.06177 16 ft 10 kts 169°
2026-05-07 18:39 40.83881 -74.06083 13 ft 13 kts 88°
2026-05-07 18:40 40.83910 -74.06032 15 ft 8 kts
2026-05-07 18:40 40.83926 -74.06032 13 ft 0 kts 360°
2026-05-07 18:40 40.83983 -74.06030 15 ft 22 kts
2026-05-07 18:40 40.84424 -74.05998 19 ft 104 kts
2026-05-07 18:41 40.85371 -74.05929 164 ft 152 kts
2026-05-07 18:41 40.86398 -74.05760 918 ft 151 kts 20°
2026-05-07 18:41 40.87327 -74.04951 1610 ft 160 kts 32°
2026-05-07 18:41 40.88349 -74.04101 1992 ft 194 kts 27°
2026-05-07 18:42 40.89808 -74.03759 1999 ft 235 kts 348°
2026-05-07 18:42 40.91158 -74.04783 1993 ft 223 kts 307°
2026-05-07 18:42 40.91615 -74.06446 2006 ft 222 kts 269°
2026-05-07 18:42 40.91077 -74.08319 2054 ft 227 kts 227°
2026-05-07 18:43 40.89893 -74.09724 2917 ft 230 kts 226°
2026-05-07 18:43 40.89207 -74.11607 3968 ft 233 kts 266°
2026-05-07 18:43 40.89349 -74.13068 4721 ft 233 kts 290°
2026-05-07 18:43 40.90217 -74.14862 5846 ft 233 kts 315°
2026-05-07 18:44 40.91569 -74.16035 6928 ft 236 kts 339°
2026-05-07 18:44 40.93211 -74.16283 7915 ft 245 kts
2026-05-07 18:44 40.94887 -74.15409 8945 ft 253 kts 26°
2026-05-07 18:44 40.96455 -74.14306 9941 ft 258 kts 26°
2026-05-07 18:45 40.98113 -74.13147 10479 ft 281 kts 25°
2026-05-07 18:45 40.99704 -74.12042 10881 ft 304 kts 25°
2026-05-07 18:45 41.01421 -74.10852 11266 ft 325 kts 25°
2026-05-07 18:45 41.03254 -74.09583 11619 ft 347 kts 25°
2026-05-07 18:46 41.05191 -74.08239 11927 ft 368 kts 25°
2026-05-07 18:46 41.07223 -74.06823 12323 ft 383 kts 25°
2026-05-07 18:46 41.09356 -74.05330 12962 ft 390 kts 25°
2026-05-07 18:46 41.11481 -74.03839 13648 ft 395 kts 25°
2026-05-07 18:47 41.13624 -74.02343 14318 ft 400 kts 25°
2026-05-07 18:47 41.15697 -74.00610 14957 ft 408 kts 34°
2026-05-07 18:47 41.17202 -73.98875 15440 ft 414 kts 43°
2026-05-07 18:47 41.17981 -73.97763 15685 ft 418 kts 48°
2026-05-07 18:48 41.18421 -73.97052 15850 ft 414 kts 45°
2026-05-07 18:48 41.20310 -73.94900 16604 ft 412 kts 40°
2026-05-07 18:49 41.21839 -73.92347 16867 ft 425 kts 60°
2026-05-07 18:49 41.22777 -73.89154 16978 ft 433 kts 76°
2026-05-07 18:49 41.23269 -73.85715 17000 ft 451 kts 83°
2026-05-07 18:49 41.23552 -73.82478 17006 ft 462 kts 85°
2026-05-07 18:50 41.23849 -73.78476 17004 ft 467 kts 85°
2026-05-07 18:50 41.24338 -73.74196 17001 ft 469 kts 79°
2026-05-07 18:50 41.24959 -73.70617 17003 ft 469 kts 76°
2026-05-07 18:50 41.25862 -73.66441 17003 ft 469 kts 73°
2026-05-07 18:51 41.26852 -73.62364 17001 ft 469 kts 72°
2026-05-07 18:51 41.27737 -73.58189 17000 ft 469 kts 79°
2026-05-07 18:51 41.28136 -73.53905 17003 ft 467 kts 89°
2026-05-07 18:51 41.28283 -73.49579 17002 ft 467 kts 89°
2026-05-07 18:52 41.28434 -73.45933 17007 ft 467 kts 88°
2026-05-07 18:52 41.28592 -73.42588 17006 ft 467 kts 88°
2026-05-07 18:52 41.28811 -73.38216 17001 ft 468 kts 88°
2026-05-07 18:52 41.29029 -73.33846 16996 ft 467 kts 88°
2026-05-07 18:53 41.29240 -73.29536 16993 ft 467 kts 88°
2026-05-07 18:53 41.29415 -73.25817 16992 ft 467 kts 88°
2026-05-07 18:53 41.29600 -73.21736 16991 ft 468 kts 88°
2026-05-07 18:53 41.29789 -73.17416 16986 ft 467 kts 88°
2026-05-07 18:54 41.29975 -73.13109 16983 ft 467 kts 88°
2026-05-07 18:54 41.30161 -73.08788 16981 ft 467 kts 88°
2026-05-07 18:54 41.30344 -73.04472 16977 ft 467 kts 88°
2026-05-07 18:54 41.30525 -73.00156 16979 ft 468 kts 88°
2026-05-07 18:55 41.30681 -72.96471 16976 ft 468 kts 88°
2026-05-07 18:55 41.30863 -72.92151 16970 ft 468 kts 88°
2026-05-07 18:55 41.31043 -72.87833 16971 ft 468 kts 88°
2026-05-07 18:55 41.31220 -72.83513 16970 ft 468 kts 88°
2026-05-07 18:56 41.31394 -72.79191 16968 ft 468 kts 88°
2026-05-07 18:56 41.31565 -72.74868 16969 ft 468 kts 88°
2026-05-07 18:56 41.31735 -72.70540 16965 ft 468 kts 88°
2026-05-07 18:56 41.31907 -72.66218 16972 ft 468 kts 88°
2026-05-07 18:57 41.32080 -72.61895 16965 ft 468 kts 88°
2026-05-07 18:57 41.32251 -72.57563 16972 ft 467 kts 89°
2026-05-07 18:57 41.32419 -72.53244 16969 ft 468 kts 89°
2026-05-07 18:57 41.32582 -72.48921 16967 ft 468 kts 89°
2026-05-07 18:58 41.32743 -72.44629 16552 ft 461 kts 89°
2026-05-07 18:58 41.32905 -72.40393 15741 ft 456 kts 89°
2026-05-07 18:58 41.33062 -72.36204 14982 ft 451 kts 89°
2026-05-07 18:58 41.33211 -72.32064 14288 ft 446 kts 89°
2026-05-07 18:59 41.33358 -72.27942 13902 ft 444 kts 89°
2026-05-07 18:59 41.33504 -72.23852 13539 ft 442 kts 89°
2026-05-07 18:59 41.33649 -72.19776 13285 ft 440 kts 89°
2026-05-07 18:59 41.33765 -72.15719 13082 ft 438 kts 89°
2026-05-07 19:00 41.33835 -72.11679 12848 ft 436 kts 90°
2026-05-07 19:00 41.33873 -72.07601 12595 ft 434 kts 91°
2026-05-07 19:00 41.33895 -72.03594 12344 ft 433 kts 91°
2026-05-07 19:00 41.33916 -71.99605 12093 ft 431 kts 91°
2026-05-07 19:01 41.33944 -71.95623 11845 ft 429 kts 91°
2026-05-07 19:01 41.33977 -71.91663 11595 ft 427 kts 90°
2026-05-07 19:01 41.34063 -71.87740 11189 ft 418 kts 85°
2026-05-07 19:01 41.34390 -71.84931 11089 ft 402 kts 78°
2026-05-07 19:02 41.35106 -71.81745 10973 ft 382 kts 70°
2026-05-07 19:02 41.35387 -71.80715 10933 ft 376 kts 70°